User: anonymous   Login
Location: Mactaquac Provincial Park
(45.9573°N, 66.8897°W)
Time: 09:33:37
(UTC-03:00)
Language:

Cosmos 1766 - Orbit

View from above orbital plane
View from above orbital plane
View from above satellite
View from above satellite

Ground track
Ground track

The orbit data is extracted from the following two-line orbital elements,

1 16881U 86055A   16151.17253578  .00001299  00000-0  79113-4 0  9996
2 16881  82.4991  38.1698 0015320 345.7267  14.3526 15.09469768623646
Epoch (UTC): 30 May 2016 04:08:27
Eccentricity: 0.0015320
inclination: 82.4991°
perigee height: 527 km
apogee height: 548 km
right ascension of ascending node: 38.1698°
argument of perigee: 345.7267°
revolutions per day: 15.09469768
mean anomaly at epoch: 14.3526°
orbit number at epoch: 62364

The dashed part of the orbit path shows where the satellite is in the earth's shadow,  

DLR